Wind_Speed
6 10 8 7 6 6 7 7 8 9 8 10 11 12 17 14 14 12 14 16 17 18 18 17 13 12 16 17 13 12 13 13 12 13 13 13 14 15 16 15 13 12 13 12
11 13 11 10 9 8 9 10 9 10 9 10 12 14 17 16 14 15 15 16 17 20 18 17 18 12 13 18 13 12 12 12 12 13 13 14 16 17 17 16 15 13 12 9
14 14 12 11 11 10 11 13 11 10 9 12 13 10 17 17 15 17 16 18 18 21 18 13 11 10 11 16 13 11 8 9 10 11 12 13 16 17 18 20 18 14 8 7
18 16 14 13 12 12 12 16 12 12 10 9 13 9 13 12 14 16 11 15 14 17 13 7 9 11 12 14 14 10 7 8 10 11 12 13 17 18 20 23 20 13 10 9
19 18 16 14 14 15 13 15 15 14 14 13 12 13 9 13 13 16 13 12 12 11 6 5 8 10 14 15 12 10 9 8 10 10 10 9 17 19 20 19 20 14 10 9
18 18 17 17 17 16 16 15 18 19 16 13 16 14 4 10 8 9 9 10 12 12 10 10 7 6 6 11 10 11 9 9 9 10 9 9 14 18 19 17 18 16 14 13
15 16 14 14 15 17 18 17 13 13 12 9 20 14 11 14 15 11 11 11 12 15 16 9 8 9 7 8 6 8 8 5 10 9 10 8 13 17 17 17 18 18 18 15
12 10 17 15 15 16 18 14 15 13 11 13 19 12 8 13 22 14 15 18 16 19 18 15 10 9 10 10 9 10 8 5 9 9 12 12 12 16 16 16 17 18 18 17
13 13 19 17 17 14 13 15 14 16 17 16 10 13 11 9 19 20 14 18 21 22 22 17 11 10 10 10 9 9 10 10 8 10 12 12 14 13 14 16 16 17 16 18
22 19 22 24 22 23 21 20 16 15 15 17 11 15 10 15 18 22 19 19 22 18 17 15 13 10 7 9 10 9 10 10 9 9 11 13 15 15 15 14 13 16 16 17
23 22 21 21 21 21 23 25 26 23 21 19 18 14 17 16 13 17 17 20 14 11 15 14 14 12 9 7 11 12 10 11 15 10 11 14 16 17 15 13 13 14 15 18
23 21 19 21 25 24 29 32 31 25 20 23 23 22 23 14 14 17 23 16 18 12 13 14 16 15 12 8 9 11 12 13 13 15 13 15 17 17 17 15 15 16 15 16
27 26 26 25 28 31 27 26 27 31 34 35 29 22 24 22 20 23 19 24 21 19 18 12 16 15 13 10 9 9 10 13 12 16 14 13 18 20 18 18 17 16 18 18
32 30 32 30 31 34 34 33 32 31 32 28 28 30 23 25 30 26 26 25 26 22 20 16 14 11 11 12 10 10 9 12 15 17 19 16 17 19 17 16 15 15 17 18
36 35 35 36 34 35 36 35 34 37 34 40 34 31 30 40 37 32 32 29 26 30 27 21 16 13 14 15 10 10 10 13 14 19 21 20 17 18 17 16 17 17 19 19
35 35 37 38 37 37 38 33 33 35 35 39 41 41 34 38 44 38 36 39 29 30 31 27 21 16 18 17 16 13 12 12 12 14 21 23 23 21 21 19 20 21 21 20
36 36 37 36 33 34 34 33 31 33 33 37 39 37 44 40 38 40 41 35 32 33 30 29 26 18 18 18 17 13 12 10 14 18 20 22 26 25 25 25 23 23 23 23
34 31 34 34 37 35 37 30 30 32 34 35 36 40 42 40 38 41 40 41 41 34 34 33 28 25 23 22 18 14 12 10 10 13 21 21 21 24 25 25 21 23 24 26
32 35 35 35 36 34 35 35 31 29 32 29 31 33 34 36 39 39 40 40 45 43 38 36 37 32 30 27 20 22 13 11 12 12 13 17 20 24 26 22 23 23 23 22
35 36 36 37 36 37 38 34 30 33 33 35 38 37 33 34 36 42 39 40 43 45 43 39 35 36 35 32 24 21 21 16 15 15 13 15 19 25 24 24 22 22 18 16
33 33 35 37 39 39 39 32 33 36 41 42 41 41 38 36 40 40 39 40 42 44 45 43 39 33 37 35 29 26 22 22 21 20 16 16 18 19 28 33 24 20 14 11
34 36 36 39 37 37 35 35 36 41 43 46 44 43 42 40 40 43 42 39 43 43 44 43 44 36 37 39 34 31 28 25 21 21 21 19 15 13 23 25 25 22 17 16
34 32 37 37 38 35 35 38 41 44 44 41 41 42 44 43 43 45 43 42 45 45 44 44 46 42 39 41 39 36 34 24 25 25 23 20 18 16 20 18 20 16 14 15
33 34 34 35 29 33 35 42 43 41 38 39 39 40 42 45 44 45 47 42 46 45 46 43 48 47 44 42 40 39 31 23 26 25 25 24 21 20 16 4 13 15 16 14
32 32 28 28 32 35 32 35 37 38 38 40 34 40 42 41 42 45 47 43 46 46 46 45 47 50 49 43 42 40 30 26 25 21 25 27 24 21 15 14 14 16 15 14
27 29 32 30 31 34 30 34 37 35 37 32 34 33 35 34 37 43 45 44 45 47 48 49 47 49 46 46 44 42 35 32 27 25 23 26 29 25 19 18 17 16 15 15
Wind_Direction
270 275 286 300 302 314 316 312 318 333 1 357 349 316 310 310 289 286 285 296 310 313 303 304 295 280 280 277 261 243 236 235 227 227 213 219 224 222 202 204 213 225 203 198
263 270 288 293 299 301 300 293 295 310 334 354 343 320 324 323 303 289 291 293 306 314 318 299 306 294 266 262 272 254 232 230 223 226 222 220 221 217 208 203 212 201 198 205
265 267 269 270 277 279 282 281 287 298 315 332 345 328 309 314 299 299 325 311 298 300 307 304 306 304 272 266 271 253 221 231 232 230 231 226 223 211 197 197 202 194 193 177
266 269 263 262 265 269 270 280 288 293 303 314 325 345 309 295 287 305 311 303 298 297 301 297 302 295 292 275 267 262 237 237 246 244 250 236 223 213 196 193 202 205 196 200
273 272 270 271 266 274 267 286 286 292 303 313 331 329 316 278 292 299 304 298 297 310 307 298 297 292 290 263 255 255 241 249 245 242 250 241 213 211 205 206 206 211 211 215
272 278 275 272 275 278 278 277 286 299 304 311 288 315 315 268 273 249 283 293 303 309 309 291 285 292 277 263 256 251 230 244 238 243 243 242 206 199 202 202 208 221 219 201
289 287 285 282 275 273 276 283 292 290 296 294 290 311 312 252 256 240 266 285 300 312 316 301 287 262 243 252 262 269 279 250 243 236 244 233 201 196 201 207 218 219 214 209
275 296 279 281 281 275 289 265 262 275 281 278 291 302 290 265 246 255 264 277 299 308 314 323 301 264 265 260 244 246 258 249 251 229 236 229 203 194 202 213 222 221 219 211
255 259 271 273 277 275 275 287 262 274 286 291 288 282 321 299 253 251 267 267 282 295 298 306 326 311 277 257 263 258 248 238 232 234 230 231 216 203 205 216 209 201 204 212
263 256 253 260 268 277 273 266 277 294 274 274 279 280 273 273 268 254 263 266 270 281 292 305 302 310 304 272 249 252 248 241 206 230 235 229 231 224 223 224 221 215 212 213
255 254 252 251 262 245 268 272 279 270 253 267 275 281 264 263 270 245 249 251 247 273 291 298 305 306 295 282 243 245 242 234 215 217 238 230 228 228 225 227 231 229 222 225
280 277 262 258 255 260 252 258 260 264 271 282 269 261 268 253 258 250 252 242 271 252 271 291 296 295 308 298 263 248 237 232 228 223 223 237 236 232 232 229 233 235 230 227
276 276 275 276 283 274 265 265 259 256 259 264 263 271 273 271 249 251 245 250 236 242 259 278 289 287 285 293 281 269 236 228 227 231 227 223 233 234 231 230 230 234 238 233
277 275 274 271 265 266 276 273 272 268 265 261 258 262 245 267 257 253 243 237 239 244 249 256 267 268 272 278 279 279 267 242 241 228 222 222 228 234 234 234 235 236 236 233
276 277 275 275 271 268 270 270 269 269 269 272 272 258 250 246 254 253 239 239 241 240 241 242 243 255 262 269 269 275 275 258 249 229 225 220 226 239 231 235 241 243 242 237
275 275 274 272 272 271 270 268 265 263 263 264 268 269 263 250 245 241 243 234 228 234 238 234 235 242 263 274 271 276 265 268 262 241 225 216 217 225 221 227 239 246 249 250
279 279 278 277 274 274 273 271 270 267 263 262 262 262 263 263 257 249 239 232 231 227 226 238 225 225 248 271 275 260 254 262 249 252 241 225 224 225 230 236 239 245 248 250
280 276 277 280 281 277 273 275 269 266 263 261 263 263 263 260 258 252 241 233 226 232 225 225 228 232 240 251 264 261 243 246 246 244 250 228 225 224 227 232 234 242 248 244
276 280 279 277 278 275 279 275 274 263 266 264 265 266 266 260 253 250 242 236 231 227 224 224 226 227 237 248 255 260 255 251 249 240 232 234 225 222 223 220 226 236 239 245
278 278 278 278 274 271 276 279 271 268 272 267 272 271 263 253 249 246 240 234 232 229 225 219 222 227 230 239 246 251 256 279 259 251 248 229 237 231 223 220 216 229 232 237
281 280 281 276 273 275 276 281 274 275 270 275 279 274 266 254 247 241 239 232 230 226 224 220 218 222 226 231 239 245 254 267 256 244 238 236 234 236 215 226 212 214 222 233
281 281 279 275 276 279 281 278 275 273 277 277 275 270 266 258 245 241 236 228 226 222 220 217 215 217 225 227 230 240 246 252 257 245 243 242 244 230 225 235 227 193 200 184
280 278 274 277 276 284 280 278 279 281 280 278 277 271 266 258 245 238 235 226 222 220 216 213 211 213 218 228 230 235 241 243 242 240 236 240 243 234 233 220 237 209 168 176
284 276 277 279 288 280 278 278 282 280 282 283 280 271 266 255 243 234 231 224 221 219 216 211 211 210 217 221 228 231 233 236 248 233 231 232 237 236 250 237 167 172 188 193
276 287 288 290 288 285 284 280 280 283 285 287 276 269 258 252 238 232 229 220 218 216 216 210 210 210 217 222 227 228 224 227 233 225 232 234 235 241 232 218 219 208 203 213
291 294 297 301 293 292 293 284 281 280 285 287 290 276 256 241 231 228 224 219 214 213 212 210 209 209 218 219 222 221 220 221 227 230 236 234 236 237 229 227 230 232 236 237
Height
5909 5908 5909 5910 5910 5910 5910 5910 5910 5909 5908 5906 5904 5902 5900 5899 5898 5897 5895 5894 5892 5891 5890 5889 5890 5890 5889 5888 5889 5891 5892 5892 5893 5894 5895 5895 5894 5894 5898 5901 5902 5904 5905 5907
5907 5906 5907 5907 5907 5908 5907 5907 5908 5907 5905 5905 5903 5900 5899 5898 5896 5896 5895 5894 5892 5889 5889 5887 5887 5886 5886 5884 5886 5888 5888 5890 5891 5892 5893 5893 5893 5894 5897 5900 5901 5903 5904 5906
5904 5905 5904 5904 5905 5905 5904 5904 5905 5905 5903 5902 5902 5900 5898 5897 5895 5894 5894 5892 5889 5887 5885 5885 5885 5884 5884 5883 5885 5886 5886 5888 5889 5890 5891 5891 5891 5893 5895 5898 5899 5902 5903 5904
5900 5901 5901 5901 5902 5902 5902 5900 5901 5901 5901 5901 5900 5901 5898 5896 5895 5894 5893 5890 5888 5884 5883 5883 5883 5883 5883 5883 5884 5885 5885 5885 5887 5888 5889 5888 5889 5891 5894 5895 5898 5900 5902 5904
5896 5896 5897 5898 5898 5898 5898 5897 5898 5897 5898 5898 5899 5899 5902 5896 5896 5893 5891 5888 5886 5884 5882 5882 5881 5881 5880 5881 5882 5882 5883 5883 5884 5885 5886 5886 5888 5890 5893 5895 5897 5899 5901 5902
5892 5893 5894 5895 5895 5895 5895 5895 5895 5895 5896 5897 5898 5897 5899 5897 5894 5891 5889 5887 5885 5883 5882 5881 5880 5880 5879 5879 5880 5880 5881 5881 5882 5883 5883 5884 5886 5888 5891 5894 5896 5897 5899 5900
5890 5889 5890 5890 5890 5890 5891 5892 5895 5899 5899 5900 5895 5895 5894 5891 5890 5890 5888 5886 5884 5883 5881 5879 5879 5879 5878 5877 5878 5878 5879 5879 5880 5881 5882 5883 5884 5887 5890 5893 5894 5895 5897 5898
5888 5890 5885 5885 5887 5888 5888 5891 5893 5895 5897 5898 5892 5892 5895 5888 5887 5888 5887 5885 5884 5882 5880 5878 5878 5877 5877 5876 5875 5876 5876 5877 5879 5879 5881 5883 5884 5886 5889 5891 5892 5893 5895 5897
5884 5885 5882 5882 5882 5884 5886 5884 5888 5887 5890 5888 5892 5890 5889 5886 5884 5885 5884 5883 5882 5881 5880 5879 5877 5876 5876 5875 5874 5873 5874 5875 5876 5878 5879 5881 5883 5885 5887 5889 5890 5892 5894 5896
5878 5880 5879 5878 5879 5879 5879 5881 5883 5883 5885 5886 5889 5887 5887 5885 5881 5882 5881 5880 5880 5879 5878 5878 5876 5875 5873 5873 5872 5872 5872 5872 5873 5876 5878 5880 5882 5884 5886 5887 5889 5891 5893 5894
5873 5875 5877 5876 5876 5877 5874 5875 5875 5878 5880 5881 5882 5886 5882 5880 5879 5879 5878 5876 5876 5876 5876 5875 5874 5874 5872 5870 5870 5870 5870 5869 5870 5873 5875 5877 5879 5881 5883 5885 5888 5890 5891 5892
5865 5866 5868 5869 5868 5868 5868 5868 5870 5871 5874 5872 5872 5875 5876 5875 5875 5873 5872 5873 5871 5872 5873 5872 5871 5870 5870 5869 5868 5868 5868 5867 5868 5869 5872 5874 5876 5878 5880 5882 5885 5888 5889 5889
5858 5860 5859 5861 5861 5857 5859 5861 5862 5861 5861 5862 5866 5870 5868 5868 5869 5864 5866 5867 5867 5868 5869 5869 5867 5866 5866 5866 5865 5864 5864 5865 5865 5866 5868 5870 5873 5875 5877 5880 5882 5885 5887 5888
5848 5851 5851 5852 5853 5849 5850 5851 5851 5852 5851 5855 5858 5860 5863 5861 5857 5857 5859 5861 5862 5863 5864 5865 5864 5863 5862 5861 5862 5861 5860 5861 5862 5862 5864 5867 5869 5871 5874 5877 5879 5881 5883 5885
5841 5841 5840 5840 5841 5840 5839 5841 5841 5839 5842 5838 5843 5845 5848 5846 5846 5848 5850 5853 5855 5857 5859 5860 5860 5860 5859 5858 5858 5858 5857 5857 5858 5858 5860 5863 5865 5868 5871 5873 5875 5876 5878 5880
5831 5831 5830 5829 5829 5829 5828 5831 5830 5830 5831 5829 5828 5829 5835 5833 5832 5837 5840 5843 5846 5849 5852 5854 5854 5856 5856 5855 5855 5854 5854 5853 5853 5853 5855 5857 5860 5863 5866 5869 5870 5872 5874 5877
5821 5819 5818 5817 5818 5817 5818 5818 5819 5819 5819 5818 5817 5822 5816 5821 5824 5825 5829 5832 5837 5841 5844 5845 5843 5850 5851 5852 5852 5851 5851 5851 5851 5851 5851 5853 5856 5859 5862 5864 5866 5868 5870 5872
5811 5810 5807 5807 5805 5807 5805 5807 5807 5806 5805 5806 5807 5805 5806 5810 5812 5811 5817 5821 5826 5831 5835 5838 5840 5843 5846 5847 5848 5849 5848 5849 5849 5848 5847 5850 5851 5853 5856 5858 5860 5862 5863 5865
5802 5800 5798 5798 5795 5796 5794 5792 5795 5794 5792 5795 5794 5794 5795 5796 5798 5800 5805 5809 5814 5819 5825 5829 5832 5836 5839 5842 5843 5844 5845 5845 5845 5845 5845 5846 5845 5847 5850 5852 5855 5858 5857 5860
5791 5789 5788 5786 5785 5783 5780 5781 5782 5781 5780 5781 5780 5781 5783 5784 5786 5784 5792 5797 5800 5806 5812 5819 5823 5827 5831 5834 5837 5839 5840 5841 5841 5841 5841 5840 5841 5841 5844 5846 5848 5853 5855 5857
5779 5778 5776 5773 5771 5770 5768 5770 5769 5769 5767 5766 5768 5769 5770 5771 5773 5775 5779 5784 5789 5793 5799 5806 5813 5817 5822 5826 5830 5833 5835 5835 5836 5837 5838 5836 5836 5836 5836 5834 5826 5842 5849 5853
5769 5765 5763 5759 5760 5760 5759 5758 5758 5753 5753 5752 5754 5754 5755 5757 5760 5763 5766 5771 5775 5781 5787 5794 5801 5808 5813 5817 5822 5825 5828 5829 5832 5833 5833 5833 5834 5833 5833 5833 5834 5837 5843 5847
5757 5756 5751 5752 5750 5749 5748 5744 5742 5740 5739 5738 5738 5739 5739 5742 5745 5749 5753 5758 5762 5769 5775 5782 5790 5798 5803 5808 5813 5817 5820 5824 5826 5828 5829 5830 5830 5830 5828 5830 5834 5835 5837 5845
5746 5742 5741 5740 5743 5738 5736 5730 5726 5725 5725 5724 5723 5721 5721 5725 5729 5734 5738 5745 5750 5756 5764 5771 5779 5787 5792 5798 5804 5809 5814 5817 5819 5822 5824 5826 5826 5825 5826 5824 5830 5834 5840 5844
5733 5732 5732 5731 5727 5722 5722 5717 5714 5712 5711 5708 5706 5704 5703 5706 5713 5719 5725 5733 5739 5746 5753 5761 5768 5776 5783 5789 5796 5801 5805 5809 5812 5814 5818 5820 5822 5822 5824 5828 5833 5837 5839 5839
5728 5725 5721 5720 5716 5711 5710 5705 5702 5701 5699 5695 5691 5687 5686 5689 5697 5704 5713 5722 5728 5735 5743 5751 5758 5767 5772 5777 5784 5792 5797 5802 5806 5809 5812 5815 5817 5820 5823 5825 5828 5831 5834 5836